TimeEDT,TemperatureF,Dew PointF,Humidity,Sea Level PressureIn,VisibilityMPH,Wind Direction,Wind SpeedMPH,Gust SpeedMPH,PrecipitationIn,Events,Conditions,WindDirDegrees,DateUTC
12:53 AM,60.1,54.0,80,30.14,10.0,SSW,5.8,-,N/A,,Clear,200,2012-10-05 04:53:00
1:53 AM,59.0,54.0,83,30.14,10.0,SSW,6.9,-,N/A,,Clear,200,2012-10-05 05:53:00
2:53 AM,59.0,54.0,83,30.14,10.0,SSW,4.6,-,N/A,,Clear,210,2012-10-05 06:53:00
3:53 AM,57.9,53.1,84,30.11,10.0,SSW,5.8,-,N/A,,Clear,200,2012-10-05 07:53:00
4:53 AM,57.0,53.1,87,30.11,10.0,SSW,3.5,-,N/A,,Clear,210,2012-10-05 08:53:00
5:53 AM,57.9,53.1,84,30.12,10.0,SSW,3.5,-,N/A,,Clear,200,2012-10-05 09:53:00
6:53 AM,57.0,53.1,87,30.12,8.0,SSW,4.6,-,N/A,,Clear,200,2012-10-05 10:53:00
7:53 AM,57.0,54.0,89,30.13,10.0,Calm,Calm,-,N/A,,Clear,0,2012-10-05 11:53:00
8:53 AM,59.0,55.0,87,30.12,10.0,South,5.8,-,N/A,,Clear,190,2012-10-05 12:53:00
9:53 AM,64.0,57.0,78,30.12,10.0,SSW,4.6,-,N/A,,Clear,210,2012-10-05 13:53:00
11:53 AM,69.1,57.9,68,30.09,10.0,South,8.1,-,N/A,,Clear,190,2012-10-05 15:53:00
12:53 PM,72.0,59.0,64,30.08,10.0,SSW,4.6,-,N/A,,Clear,210,2012-10-05 16:53:00
1:53 PM,73.9,57.9,57,30.05,10.0,WSW,9.2,-,N/A,,Partly Cloudy,240,2012-10-05 17:53:00
2:53 PM,73.0,57.9,59,30.03,10.0,Variable,5.8,-,N/A,,Overcast,0,2012-10-05 18:53:00
3:53 PM,73.9,57.9,57,30.00,10.0,SW,8.1,-,N/A,,Scattered Clouds,220,2012-10-05 19:53:00
4:53 PM,73.0,57.9,59,29.98,9.0,SW,3.5,-,N/A,,Mostly Cloudy,220,2012-10-05 20:53:00
5:53 PM,72.0,57.9,61,29.96,10.0,SW,3.5,-,N/A,,Scattered Clouds,230,2012-10-05 21:53:00
6:53 PM,70.0,57.9,65,29.96,10.0,Calm,Calm,-,N/A,,Overcast,0,2012-10-05 22:53:00
7:53 PM,69.1,57.9,68,29.93,10.0,South,4.6,-,N/A,,Overcast,190,2012-10-05 23:53:00
8:53 PM,68.0,57.9,70,29.93,10.0,SSW,4.6,-,N/A,,Overcast,200,2012-10-06 00:53:00
9:53 PM,66.9,57.9,73,29.92,10.0,Calm,Calm,-,N/A,,Overcast,0,2012-10-06 01:53:00
10:53 PM,59.0,54.0,83,29.94,10.0,NW,10.4,19.6,0.00,,Overcast,320,2012-10-06 02:53:00
11:09 PM,57.2,53.6,88,29.94,10.0,NW,10.4,-,N/A,,Overcast,320,2012-10-06 03:09:00
11:53 PM,55.9,52.0,87,29.94,10.0,NNW,12.7,-,0.00,,Overcast,340,2012-10-06 03:53:00